| time (UTC) | temp F | wind direction | speed knots | gust knots | rain 1hr in | rain 24hr in | rain mn in | humidity % | barometer mb |
| 20260507104839 | 55 | 338 | 1.7 | 5.2 | 0.00 | 0.04 | 0.00 | 71 | 1016.5 |
| 20260507104338 | 55 | 340 | 1.7 | 7.0 | 0.00 | 0.04 | 0.00 | 72 | 1016.5 |
| 20260507103338 | 54 | 213 | 2.6 | 4.3 | 0.00 | 0.04 | 0.00 | 72 | 1016.7 |
| 20260507102840 | 55 | 304 | 2.6 | 5.2 | 0.00 | 0.04 | 0.00 | 73 | 1016.7 |
| 20260507101838 | 54 | 305 | 1.7 | 6.1 | 0.00 | 0.04 | 0.00 | 76 | 1016.6 |
| 20260507100338 | 54 | 297 | 1.7 | 6.1 | 0.00 | 0.05 | 0.00 | 75 | 1016.4 |
| 20260507094339 | 53 | 40 | 1.7 | 6.1 | 0.00 | 0.05 | 0.00 | 78 | 1016.4 |
| 20260507093838 | 53 | 357 | 1.7 | 4.3 | 0.00 | 0.05 | 0.00 | 79 | 1016.2 |
| 20260507092840 | 53 | 320 | 1.7 | 4.3 | 0.00 | 0.06 | 0.00 | 80 | 1016.2 |
| 20260507092339 | 53 | 57 | 1.7 | 5.2 | 0.00 | 0.06 | 0.00 | 80 | 1016.2 |
| 20260507091838 | 53 | 291 | 1.7 | 6.1 | 0.00 | 0.07 | 0.00 | 81 | 1016.2 |
| 20260507091338 | 53 | 299 | 1.7 | 4.3 | 0.00 | 0.07 | 0.00 | 82 | 1016.2 |
| 20260507085842 | 52 | 264 | 2.6 | 7.0 | 0.00 | 0.08 | 0.00 | 84 | 1016.1 |
| 20260507083338 | 51 | 337 | 1.7 | 5.2 | 0.00 | 0.12 | 0.00 | 86 | 1016.0 |
| 20260507082841 | 51 | 309 | 1.7 | 5.2 | 0.00 | 0.12 | 0.00 | 88 | 1016.0 |
| 20260507082338 | 51 | 245 | 1.7 | 4.3 | 0.00 | 0.13 | 0.00 | 90 | 1015.9 |
| 20260507081838 | 50 | 300 | 1.7 | 1.7 | 0.00 | 0.13 | 0.00 | 89 | 1015.9 |
| 20260507080838 | 50 | 308 | 1.7 | 5.2 | 0.00 | 0.15 | 0.00 | 90 | 1015.8 |
| 20260507075338 | 50 | 312 | 0.9 | 5.2 | 0.00 | 0.16 | 0.00 | 93 | 1015.8 |
| 20260507074338 | 49 | 20 | 1.7 | 4.3 | 0.00 | 0.18 | 0.00 | 94 | 1015.8 |
| 20260507073843 | 49 | 222 | 0.9 | 5.2 | 0.00 | 0.18 | 0.00 | 94 | 1015.6 |
| 20260507073338 | 49 | 293 | 0.9 | 4.3 | 0.00 | 0.18 | 0.00 | 94 | 1015.6 |
| 20260507072841 | 49 | 306 | 1.7 | 4.3 | 0.00 | 0.19 | 0.00 | 95 | 1015.6 |
| 20260507070839 | 49 | 290 | 0.9 | 6.1 | 0.00 | 0.20 | 0.00 | 97 | 1015.5 |
| 20260507065338 | 48 | 309 | 0.9 | 4.3 | 0.00 | 0.21 | 0.00 | 98 | 1015.4 |
| 20260507064338 | 48 | 211 | 0.9 | 4.3 | 0.00 | 0.21 | 0.00 | 98 | 1015.4 |
| 20260507063838 | 47 | 203 | 0.9 | 4.3 | 0.00 | 0.21 | 0.00 | 98 | 1015.3 |
| 20260507062842 | 47 | 200 | 0.9 | 2.6 | 0.00 | 0.21 | 0.00 | 98 | 1015.3 |
| 20260507061338 | 47 | 219 | 0.9 | 2.6 | 0.00 | 0.21 | 0.00 | 99 | 1015.2 |
| 20260507060338 | 47 | 217 | 0.0 | 2.6 | 0.00 | 0.21 | 0.00 | 99 | 1015.1 |
| 20260507055358 | 47 | 150 | 0.0 | 0.9 | 0.00 | 0.21 | 0.00 | 99 | 1015.0 |
| 20260507054838 | 47 | 150 | 0.0 | 0.0 | 0.00 | 0.21 | 0.00 | 99 | 1015.0 |
| 20260507053838 | 47 | 150 | 0.0 | 0.0 | 0.00 | 0.21 | 0.00 | 99 | 1014.9 |
| 20260507053338 | 47 | 150 | 0.0 | 0.9 | 0.00 | 0.21 | 0.00 | 99 | 1014.9 |
| 20260507052839 | 47 | 150 | 0.0 | 0.9 | 0.00 | 0.21 | 0.00 | 99 | 1014.9 |
| 20260507052338 | 46 | 150 | 0.0 | 1.7 | 0.00 | 0.21 | 0.00 | 99 | 1014.8 |
| 20260507050338 | 46 | 143 | 0.0 | 0.9 | 0.00 | 0.22 | 0.00 | 99 | 1014.5 |
| 20260507045338 | 46 | 131 | 0.0 | 0.0 | 0.00 | 0.22 | 0.00 | 99 | 1014.4 |
| 20260507044338 | 46 | 131 | 0.0 | 0.0 | 0.00 | 0.22 | 0.00 | 99 | 1014.4 |
| 20260507043337 | 46 | 153 | 0.0 | 0.0 | 0.00 | 0.23 | 0.00 | 99 | 1014.3 |
| 20260507042841 | 46 | 153 | 0.0 | 2.6 | 0.00 | 0.23 | 0.00 | 99 | 1014.3 |
| 20260507042338 | 46 | 111 | 0.0 | 0.0 | 0.00 | 0.23 | 0.00 | 98 | 1014.2 |
| 20260507041338 | 45 | 326 | 0.0 | 0.0 | 0.00 | 0.23 | 0.00 | 98 | 1014.2 |
| 20260507035841 | 45 | 326 | 0.0 | 1.7 | 0.00 | 0.25 | 0.00 | 98 | 1014.0 |
| 20260507033837 | 45 | 326 | 0.0 | 0.0 | 0.00 | 0.26 | 0.00 | 98 | 1013.9 |
| 20260507032337 | 45 | 326 | 0.0 | 0.0 | 0.00 | 0.26 | 0.00 | 98 | 1013.8 |
| 20260507031838 | 45 | 326 | 0.0 | 0.0 | 0.00 | 0.26 | 0.00 | 98 | 1013.8 |
| 20260507031338 | 45 | 326 | 0.0 | 0.0 | 0.00 | 0.27 | 0.00 | 98 | 1013.8 |
| 20260507030838 | 45 | 326 | 0.0 | 0.0 | 0.00 | 0.27 | 0.00 | 98 | 1013.8 |
| 20260507025840 | 45 | 326 | 0.0 | 0.0 | 0.00 | 0.27 | 0.00 | 98 | 1013.8 |
| 20260507024838 | 45 | 326 | 0.0 | 0.0 | 0.00 | 0.27 | 0.00 | 97 | 1013.7 |
| 20260507023838 | 45 | 326 | 0.0 | 0.0 | 0.00 | 0.28 | 0.00 | 97 | 1013.6 |
| 20260507023337 | 45 | 326 | 0.0 | 0.0 | 0.00 | 0.28 | 0.00 | 97 | 1013.6 |
| 20260507022838 | 46 | 326 | 0.0 | 0.0 | 0.00 | 0.29 | 0.00 | 97 | 1013.6 |
| 20260507021838 | 46 | 326 | 0.0 | 0.0 | 0.00 | 0.29 | 0.00 | 97 | 1013.6 |
| 20260507021338 | 46 | 326 | 0.0 | 0.0 | 0.00 | 0.29 | 0.00 | 97 | 1013.6 |
| 20260507015840 | 46 | 326 | 0.0 | 0.0 | 0.00 | 0.29 | 0.00 | 97 | 1013.5 |
| 20260507014838 | 46 | 326 | 0.0 | 0.0 | 0.00 | 0.31 | 0.00 | 97 | 1013.4 |
| 20260507014337 | 46 | 326 | 0.0 | 0.0 | 0.00 | 0.31 | 0.00 | 97 | 1013.4 |
| 20260507012842 | 46 | 326 | 0.0 | 0.0 | 0.00 | 0.32 | 0.00 | 97 | 1013.4 |
| 20260507012338 | 46 | 326 | 0.0 | 0.0 | 0.00 | 0.32 | 0.00 | 97 | 1013.3 |
| 20260507004838 | 46 | 326 | 0.0 | 0.0 | 0.00 | 0.35 | 0.00 | 97 | 1013.2 |
| 20260507004338 | 46 | 326 | 0.0 | 0.0 | 0.00 | 0.35 | 0.00 | 97 | 1013.2 |
| 20260507003838 | 46 | 326 | 0.9 | 1.7 | 0.00 | 0.35 | 0.00 | 97 | 1013.1 |
| 20260507002841 | 46 | 326 | 0.9 | 1.7 | 0.00 | 0.35 | 0.00 | 97 | 1013.1 |
| 20260507002338 | 46 | 326 | 0.0 | 2.6 | 0.00 | 0.36 | 0.00 | 97 | 1013.0 |
| 20260506235840 | 46 | 39 | 0.9 | 4.3 | 0.00 | 0.36 | 0.00 | 97 | 1013.1 |
| 20260506235338 | 46 | 19 | 0.9 | 4.3 | 0.00 | 0.36 | 0.00 | 97 | 1013.1 |
| 20260506234337 | 46 | 49 | 1.7 | 4.3 | 0.00 | 0.37 | 0.00 | 97 | 1013.1 |
| 20260506233839 | 46 | 20 | 1.7 | 4.3 | 0.00 | 0.37 | 0.00 | 97 | 1012.8 |
| 20260506233338 | 46 | 20 | 1.7 | 5.2 | 0.00 | 0.37 | 0.00 | 97 | 1012.8 |
| 20260506232338 | 47 | 33 | 2.6 | 5.2 | 0.00 | 0.37 | 0.00 | 97 | 1012.8 |
| 20260506231838 | 47 | 15 | 1.7 | 5.2 | 0.00 | 0.37 | 0.00 | 97 | 1012.8 |
| 20260506223838 | 47 | 339 | 1.7 | 2.6 | 0.00 | 0.38 | 0.00 | 98 | 1012.5 |
| 20260506221838 | 47 | 327 | 1.7 | 4.3 | 0.00 | 0.40 | 0.00 | 98 | 1012.3 |
| 20260506221337 | 47 | 297 | 1.7 | 4.3 | 0.00 | 0.40 | 0.00 | 98 | 1012.3 |
| 20260506220837 | 47 | 23 | 1.7 | 4.3 | 0.00 | 0.40 | 0.00 | 98 | 1012.1 |
| 20260506220338 | 47 | 14 | 1.7 | 4.3 | 0.00 | 0.40 | 0.00 | 98 | 1012.1 |
| 20260506215338 | 47 | 341 | 1.7 | 6.1 | 0.00 | 0.41 | 0.41 | 97 | 1012.0 |
| 20260506214838 | 47 | 39 | 1.7 | 5.2 | 0.00 | 0.41 | 0.41 | 97 | 1012.0 |
| 20260506214337 | 47 | 323 | 1.7 | 5.2 | 0.00 | 0.41 | 0.41 | 97 | 1012.0 |
| 20260506213838 | 47 | 14 | 1.7 | 5.2 | 0.00 | 0.42 | 0.41 | 97 | 1011.9 |
| 20260506213337 | 47 | 359 | 1.7 | 4.3 | 0.00 | 0.42 | 0.41 | 97 | 1011.9 |
| 20260506211838 | 47 | 0 | 1.7 | 4.3 | 0.00 | 0.44 | 0.41 | 97 | 1011.8 |
| 20260506211337 | 47 | 336 | 0.9 | 5.2 | 0.00 | 0.44 | 0.41 | 97 | 1011.8 |
| 20260506210837 | 47 | 336 | 0.9 | 4.3 | 0.00 | 0.45 | 0.41 | 97 | 1011.8 |
| 20260506210337 | 47 | 324 | 0.9 | 4.3 | 0.00 | 0.46 | 0.41 | 97 | 1011.8 |
| 20260506205841 | 47 | 328 | 0.9 | 4.3 | 0.00 | 0.46 | 0.41 | 97 | 1011.8 |
| 20260506205338 | 47 | 316 | 0.9 | 2.6 | 0.00 | 0.47 | 0.41 | 97 | 1011.8 |
| 20260506204337 | 47 | 1 | 1.7 | 1.7 | 0.00 | 0.48 | 0.41 | 97 | 1011.8 |
| 20260506202337 | 47 | 10 | 0.9 | 4.3 | 0.00 | 0.49 | 0.41 | 97 | 1011.7 |
| 20260506201338 | 47 | 350 | 0.9 | 4.3 | 0.00 | 0.50 | 0.41 | 97 | 1011.7 |
| 20260506200837 | 47 | 343 | 0.9 | 1.7 | 0.00 | 0.51 | 0.41 | 97 | 1011.6 |
| 20260506200337 | 47 | 341 | 0.9 | 1.7 | 0.00 | 0.51 | 0.41 | 97 | 1011.6 |
| 20260506195337 | 47 | 331 | 1.7 | 4.3 | 0.00 | 0.52 | 0.41 | 97 | 1011.5 |
| 20260506194337 | 47 | 349 | 1.7 | 4.3 | 0.00 | 0.53 | 0.41 | 97 | 1011.5 |
| 20260506193837 | 47 | 35 | 1.7 | 5.2 | 0.00 | 0.54 | 0.41 | 97 | 1011.4 |
| 20260506193337 | 47 | 337 | 1.7 | 4.3 | 0.00 | 0.54 | 0.41 | 97 | 1011.4 |
| 20260506192840 | 47 | 337 | 0.9 | 4.3 | 0.00 | 0.55 | 0.41 | 97 | 1011.4 |
| 20260506192338 | 47 | 341 | 0.0 | 4.3 | 0.00 | 0.55 | 0.41 | 97 | 1011.2 |
| 20260506191838 | 47 | 322 | 0.0 | 2.6 | 0.00 | 0.56 | 0.41 | 97 | 1011.2 |
| 20260506191338 | 47 | 39 | 0.0 | 1.7 | 0.00 | 0.56 | 0.41 | 97 | 1011.2 |
| 20260506190837 | 47 | 39 | 0.0 | 1.7 | 0.00 | 0.57 | 0.41 | 97 | 1011.1 |
| 20260506190337 | 47 | 39 | 0.0 | 1.7 | 0.00 | 0.57 | 0.41 | 96 | 1011.1 |
| 20260506185839 | 47 | 39 | 0.0 | 0.9 | 0.00 | 0.58 | 0.41 | 96 | 1011.1 |
| 20260506184338 | 47 | 39 | 0.9 | 0.0 | 0.00 | 0.60 | 0.41 | 96 | 1011.1 |
| 20260506183837 | 47 | 39 | 0.9 | 2.6 | 0.00 | 0.60 | 0.41 | 96 | 1011.0 |
| 20260506182841 | 47 | 36 | 0.0 | 2.6 | 0.00 | 0.61 | 0.41 | 96 | 1011.0 |
| 20260506182338 | 47 | 36 | 0.0 | 2.6 | 0.00 | 0.61 | 0.41 | 96 | 1010.9 |
| 20260506181338 | 48 | 352 | 1.7 | 2.6 | 0.00 | 0.62 | 0.41 | 96 | 1010.9 |
| 20260506180838 | 48 | 270 | 0.9 | 4.3 | 0.00 | 0.63 | 0.41 | 96 | 1010.7 |
| 20260506180338 | 48 | 313 | 0.0 | 2.6 | 0.00 | 0.63 | 0.41 | 96 | 1010.7 |
| 20260506175841 | 47 | 313 | 0.0 | 1.7 | 0.00 | 0.64 | 0.41 | 96 | 1010.7 |
| 20260506174837 | 47 | 325 | 0.0 | 0.9 | 0.00 | 0.65 | 0.41 | 96 | 1010.6 |
| 20260506173351 | 47 | 37 | 0.9 | 1.7 | 0.00 | 0.67 | 0.41 | 96 | 1010.3 |
| 20260506170837 | 48 | 336 | 1.7 | 7.0 | 0.00 | 0.69 | 0.41 | 95 | 1010.2 |
| 20260506165840 | 48 | 347 | 1.7 | 5.2 | 0.00 | 0.71 | 0.41 | 95 | 1010.2 |
| 20260506165337 | 48 | 340 | 0.9 | 5.2 | 0.00 | 0.71 | 0.41 | 95 | 1010.1 |
| 20260506164338 | 48 | 36 | 1.7 | 2.6 | 0.00 | 0.72 | 0.41 | 95 | 1010.1 |
| 20260506162841 | 48 | 342 | 0.9 | 1.7 | 0.00 | 0.73 | 0.41 | 96 | 1010.1 |
| 20260506161338 | 48 | 47 | 1.7 | 1.7 | 0.00 | 0.73 | 0.41 | 96 | 1010.1 |
| 20260506160837 | 48 | 41 | 0.9 | 5.2 | 0.00 | 0.73 | 0.41 | 95 | 1010.0 |
| 20260506160337 | 48 | 23 | 0.9 | 4.3 | 0.00 | 0.73 | 0.41 | 96 | 1010.0 |
| 20260506155841 | 48 | 144 | 0.9 | 4.3 | 0.00 | 0.73 | 0.41 | 96 | 1010.0 |
| 20260506155337 | 48 | 30 | 0.0 | 4.3 | 0.00 | 0.73 | 0.41 | 96 | 1010.0 |
| 20260506153837 | 48 | 41 | 2.6 | 2.6 | 0.00 | 0.73 | 0.41 | 96 | 1009.9 |
| 20260506153337 | 47 | 344 | 2.6 | 4.3 | 0.00 | 0.73 | 0.41 | 96 | 1009.9 |
| 20260506152842 | 47 | 346 | 2.6 | 6.1 | 0.00 | 0.73 | 0.41 | 96 | 1009.9 |
| 20260506151843 | 48 | 343 | 2.6 | 8.7 | 0.00 | 0.73 | 0.41 | 96 | 1009.8 |
| 20260506150337 | 48 | 27 | 1.7 | 8.7 | 0.02 | 0.73 | 0.41 | 96 | 1009.8 |
| 20260506145838 | 48 | 5 | 1.7 | 6.1 | 0.02 | 0.73 | 0.41 | 96 | 1009.8 |
| 20260506145338 | 48 | 6 | 1.7 | 4.3 | 0.02 | 0.73 | 0.41 | 96 | 1009.8 |
| 20260506144837 | 48 | 347 | 1.7 | 2.6 | 0.02 | 0.73 | 0.41 | 96 | 1009.8 |
| 20260506143837 | 48 | 354 | 1.7 | 7.0 | 0.02 | 0.73 | 0.41 | 96 | 1009.7 |
| 20260506143337 | 48 | 333 | 1.7 | 4.3 | 0.02 | 0.73 | 0.41 | 96 | 1009.7 |
| 20260506142839 | 48 | 315 | 1.7 | 5.2 | 0.02 | 0.73 | 0.41 | 96 | 1009.7 |
| 20260506140838 | 48 | 32 | 1.7 | 6.1 | 0.00 | 0.71 | 0.39 | 96 | 1009.7 |
| 20260506135337 | 48 | 324 | 1.7 | 8.7 | 0.01 | 0.71 | 0.39 | 96 | 1009.7 |
| 20260506134338 | 48 | 324 | 2.6 | 7.0 | 0.01 | 0.71 | 0.39 | 96 | 1009.7 |
| 20260506132841 | 48 | 348 | 2.6 | 7.8 | 0.02 | 0.71 | 0.39 | 96 | 1009.7 |
| 20260506132339 | 48 | 45 | 2.6 | 7.0 | 0.02 | 0.71 | 0.39 | 96 | 1009.5 |
| 20260506131838 | 48 | 27 | 2.6 | 7.8 | 0.02 | 0.71 | 0.39 | 96 | 1009.5 |
| 20260506131337 | 48 | 342 | 2.6 | 7.8 | 0.02 | 0.71 | 0.39 | 96 | 1009.5 |
| 20260506125337 | 49 | 357 | 4.3 | 7.8 | 0.01 | 0.70 | 0.38 | 96 | 1009.1 |
| 20260506124337 | 50 | 337 | 1.7 | 7.0 | 0.01 | 0.70 | 0.38 | 96 | 1009.1 |
| 20260506123837 | 50 | 4 | 1.7 | 4.3 | 0.01 | 0.70 | 0.38 | 96 | 1009.0 |
| 20260506123338 | 50 | 326 | 1.7 | 8.7 | 0.00 | 0.69 | 0.37 | 97 | 1009.0 |
| 20260506122841 | 49 | 342 | 1.7 | 5.2 | 0.00 | 0.69 | 0.37 | 97 | 1009.0 |
| 20260506121837 | 49 | 347 | 1.7 | 6.1 | 0.00 | 0.69 | 0.37 | 96 | 1008.9 |
| 20260506120338 | 49 | 320 | 2.6 | 7.0 | 0.00 | 0.69 | 0.37 | 96 | 1008.8 |
| 20260506114838 | 49 | 9 | 2.6 | 4.3 | 0.00 | 0.70 | 0.37 | 97 | 1008.7 |
| 20260506113838 | 49 | 12 | 2.6 | 4.3 | 0.00 | 0.70 | 0.37 | 97 | 1008.6 |
| 20260506112840 | 49 | 340 | 3.5 | 6.1 | 0.00 | 0.70 | 0.37 | 97 | 1008.6 |
| 20260506111837 | 49 | 323 | 4.3 | 6.1 | 0.00 | 0.70 | 0.37 | 97 | 1008.6 |
| 20260506110338 | 49 | 358 | 2.6 | 13.0 | 0.01 | 0.70 | 0.37 | 97 | 1008.5 |
| 20260506105840 | 49 | 27 | 2.6 | 6.1 | 0.01 | 0.70 | 0.37 | 97 | 1008.5 |